Weather History for Riverside March, CA

Change the Weather History Date:

Friday, May 30, 2014

  Actual Average Record
Temperature  
Mean Temperature 72 °F -  
Max Temperature 91 °F 79 °F 93 °F (1997)
Min Temperature 54 °F 53 °F 37 °F (2011)
Cooling Degree Days 8    
Growing Degree Days 22 (Base 50)    
Moisture  
Dew Point 50 °F    
Average Humidity 50    
Maximum Humidity 85    
Minimum Humidity 19    
Precipitation  
Precipitation 0.00 in - - ()
Sea Level Pressure  
Sea Level Pressure 29.86 in    
Wind  
Wind Speed 4 mph (NW)    
Max Wind Speed 16 mph    
Max Gust Speed 17 mph    
Visibility 10 miles    
Events      
Averages and records for this station are not official NWS values.
T = Trace of Precipitation, MM = Missing Value Source: NWS Daily Summary

Daily Weather History Graph

Daily Weather History Graph

Search for Another Location

Airport:

Trip Planner

Search our weather history database for the weather conditions in past years. The results will help you decide how hot, cold, wet, or windy it might be!

Date:

Astronomy

May. 30, 2014 Rise Set
Actual Time 5:39 AM PDT 7:53 PM PDT
Civil Twilight 5:11 AM PDT 8:22 PM PDT
Nautical Twilight 4:36 AM PDT 8:57 PM PDT
Astronomical Twilight 3:58 AM PDT 9:35 PM PDT
Moon 7:25 AM PDT (5/30) 9:37 PM PDT (5/30)
Length of Visible Light 15h 11m
Length of Day
14h 14m
Waxing Crescent, 4% of the Moon is Illuminated
May 30
Waxing Crescent
Jun 5
First Quarter
Jun 12
Full
Jun 19
Last Quarter
Jun 27
New

Hourly Weather History & Observations

Time (PDT) Temp. Dew Point Humidity Pressure Visibility Wind Dir Wind Speed Gust Speed Precip Events Conditions
12:58 AM 60.1 °F 53.1 °F 78% 29.87 in 10.0 mi West 3.5 mph - N/A   Clear
1:58 AM 57.7 °F 51.4 °F 79% 29.87 in 10.0 mi WNW 3.5 mph - N/A   Clear
2:58 AM 57.9 °F 52.0 °F 81% 29.85 in 10.0 mi WNW 2.3 mph - N/A   Clear
3:58 AM 55.8 °F 50.7 °F 83% 29.85 in 10.0 mi Calm Calm - N/A   Clear
4:58 AM 54.7 °F 50.2 °F 85% 29.85 in 10.0 mi WNW 3.5 mph - N/A   Clear
5:58 AM 54.3 °F 50.0 °F 85% 29.86 in 10.0 mi Calm Calm - N/A   Clear
6:58 AM 61.5 °F 55.0 °F 79% 29.87 in 10.0 mi Calm Calm - N/A   Clear
7:58 AM 66.4 °F 55.9 °F 69% 29.88 in 10.0 mi NE 1.2 mph - N/A   Partly Cloudy
8:58 AM 71.2 °F 55.0 °F 56% 29.88 in 10.0 mi NE 2.3 mph - N/A   Clear
9:58 AM 77.2 °F 52.7 °F 42% 29.88 in 10.0 mi Variable 2.3 mph - N/A   Clear
10:58 AM 81.7 °F 51.6 °F 35% 29.87 in 10.0 mi Variable 5.8 mph - N/A   Clear
11:58 AM 84.9 °F 50.7 °F 31% 29.88 in 10.0 mi NNW 8.1 mph - N/A   Clear
12:58 PM 87.4 °F 48.6 °F 26% 29.86 in 10.0 mi Variable 6.9 mph - N/A   Clear
1:58 PM 90.0 °F 44.1 °F 20% 29.85 in 10.0 mi NNW 6.9 mph - N/A   Clear
2:58 PM 91.0 °F 50.2 °F 25% 29.82 in 10.0 mi NW 10.4 mph 17.3 mph N/A   Clear
3:58 PM 90.9 °F 47.8 °F 23% 29.82 in 10.0 mi WNW 13.8 mph - N/A   Clear
4:58 PM 88.5 °F 41.4 °F 19% 29.81 in 10.0 mi WNW 16.1 mph - N/A   Clear
5:58 PM 86.5 °F 40.8 °F 20% 29.81 in 10.0 mi WNW 12.7 mph - N/A   Clear
6:58 PM 82.9 °F 45.7 °F 27% 29.82 in 10.0 mi West 9.2 mph - N/A   Clear
7:58 PM 77.2 °F 48.9 °F 37% 29.84 in 10.0 mi WNW 6.9 mph - N/A   Clear
8:58 PM 72.7 °F 47.7 °F 41% 29.86 in 10.0 mi NW 5.8 mph - N/A   Clear
9:58 PM 70.2 °F 48.7 °F 46% 29.88 in 10.0 mi WNW 4.6 mph - N/A   Clear
10:58 PM 66.7 °F 50.5 °F 56% 29.88 in 10.0 mi NW 3.5 mph - N/A   Clear
11:58 PM 65.1 °F 49.3 °F 56% 29.88 in 10.0 mi West 4.6 mph - N/A   Clear